Showing default

SPACEVAN-002, 68424

Orbit data source: Space-Track

SPACEVAN-002, 68424 is a payload satellite owned by Exotrail (FR) in SSO that was launched on Mon, 30 Mar 2026 UTC via an FALCON 9 launch vehicle from the Air Force Western Test Range (AFWTR). Payload-class satellites include a variety of spacecraft equipped with specific instruments for various scientific and technological missions. These include communications satellites like Starlink; space stations such as the ISS; scientific satellites like the Hubble; Earth observation satellites from companies like Planet Labs, Umbra, and HawkEye 360; GPS; miniature CubeSats for education and research; and military/defense satellites.

Loading next visibility...
Identifier
68424, 2026-067J
Orbit
SSO
Country
Flag of FRFR
Related business
Manufacturer
NanoAvionics
Mission
Operational Commercial Technology
Bus & Motor
MP42, Unknown motor
Mass
125 kg wet, ~120 kg dry
Launch date (UTC)
2026-03-30 (6 months ago)
Launch vehicle
FALCON 9
Launch site
Air Force Western Test Range (AFWTR)
Object type
Payload
Rocket body
Debris
Shape & HBR
Box + 2 Pan, 1.8 m
Radar Cross Section
0.688 m², Large (>1 m²)

Expand to show TLE details & history
Last TLE update: 9 hours ago

TLE from 9 hours ago
0 SPACEVAN-002
1 68424U 26067J   26263.40905425  .00003212  00000-0  15387-3 0  9998
2 68424  97.4622 220.5704 0003455  72.3592 287.8020 15.19649626 26397
Epoch: 2026-09-20T09:49Z
TLE epoch observation values (Epoch: 2026-09-20T09:49:02.287Z)
Latitude
0.00001°
Longitude
74.00722°
Altitude
509.26 km
Speed
7.61 km/s
True Right ascension
14h 42m 16s
True Declination
0° 00' 00"
Sunlit
Object was in daylight at epoch
Visualization orbit readout
Latitude
Unknown
Longitude
Unknown
Altitude
Unknown
Speed
Unknown
Apparent Right ascension
Unknown
Apparent Declination
Unknown
Sunlit
N/A
Visualization observer readout
Local Sidereal Time
11:56:58
Azimuth
Unknown
Elevation
Unknown
Doppler factor
Unknown
Orbital elements
Apogee altitude
506.245 km
Perigee altitude
501.49 km
Semi-major axis
6,882.004 km
Eccentricity
0.00035
Inclination
97.4622°
RAAN
220.5704°
Arg. of periapsis
72.3592°
True anomaly
287.7643°
Mean anomaly
287.802°
Eccentric anomaly
287.78315°
Mean motion
3.80164 °/min
Orbital period
94.7 mins
BSTAR
0.00015387
Loading maneuver chart data...
Computing Atmospheric mass density...
Loading historical data...
Loading historical data...
Loading historical data...
Loading historical data...
Loading historical data...
Loading historical data...
Loading historical data...

Documentation

Showing up to 5 results
|